Wind_Speed
14 15 16 16 17 18 19 19 19 19 20 20 21 21 21 21 22 23 23 24 23 22 21 20 20 19 17 16 15 16 15 15 15 16 17 16 17 18 18 18 18 18 19 19
15 16 16 16 16 17 17 18 18 18 19 20 21 22 22 22 22 22 22 21 21 21 20 19 18 16 15 13 13 13 13 14 14 14 14 15 16 16 16 17 17 18 19 19
15 16 16 15 17 17 16 18 19 19 20 20 21 21 21 21 21 21 20 20 19 19 18 17 15 14 12 11 11 12 12 13 13 13 13 14 15 16 16 16 17 18 18 19
17 17 16 17 17 17 18 19 19 19 20 21 21 21 21 21 20 20 19 18 17 16 16 14 12 12 11 11 12 11 11 12 12 13 13 14 15 15 15 16 16 16 17 18
18 19 18 18 17 18 18 18 18 19 20 21 21 20 20 19 18 18 17 17 15 14 14 12 11 11 10 10 10 10 11 12 12 13 14 14 14 15 16 16 17 17 18 19
19 19 19 19 18 19 19 18 17 18 19 20 20 19 18 17 17 17 16 15 13 13 12 12 11 10 10 10 10 10 11 11 12 12 13 14 15 16 16 16 17 18 19 20
20 20 20 20 20 20 19 18 18 18 19 19 18 17 17 16 17 16 14 13 13 12 12 11 10 10 10 9 10 10 11 11 11 12 13 13 14 15 16 16 17 18 20 21
21 22 21 21 20 20 19 18 18 19 19 18 16 16 15 15 15 15 13 13 12 11 11 10 10 10 10 9 10 11 10 11 12 12 13 13 15 16 16 17 18 19 20 22
22 22 22 21 21 20 18 17 18 18 17 17 16 15 14 14 14 13 13 12 11 10 9 9 10 9 9 10 10 11 11 11 12 12 13 14 15 16 16 17 18 19 20 21
22 22 22 22 21 20 19 18 17 17 16 16 15 14 14 13 13 12 12 12 11 10 9 9 9 9 10 10 10 11 11 12 12 13 14 15 15 16 16 17 18 19 21 21
22 22 22 21 21 21 20 19 18 17 16 15 14 13 12 12 12 11 11 11 11 9 9 9 9 9 10 10 10 11 11 12 12 13 14 15 15 16 17 18 19 20 21 22
22 21 22 21 21 21 19 18 18 16 15 14 13 12 11 12 11 11 11 11 10 9 8 9 9 9 10 10 11 11 11 12 13 14 15 15 16 17 18 19 20 21 22 23
23 22 22 22 21 20 18 18 17 16 15 13 12 11 11 11 10 10 10 10 10 8 8 9 9 10 10 10 11 11 12 12 13 14 15 16 17 18 19 19 20 22 22 23
24 23 22 21 20 19 18 18 17 15 14 12 12 11 11 11 10 10 10 10 9 8 8 9 9 10 10 10 11 12 12 12 13 14 15 17 17 18 19 19 20 21 22 23
24 24 23 22 20 19 18 18 16 15 14 13 12 11 11 10 10 10 10 10 9 8 8 8 9 9 9 10 11 12 12 13 13 14 15 16 17 18 19 19 20 21 22 24
24 23 22 21 20 18 17 16 15 14 13 13 12 11 11 10 10 10 10 9 8 7 7 8 8 9 9 10 10 11 12 13 14 15 15 16 17 18 19 19 20 21 23 24
23 22 22 20 19 17 16 16 15 15 14 13 12 11 11 11 10 9 9 8 7 7 7 7 8 8 9 9 10 12 12 13 14 15 15 16 18 18 19 20 21 21 23 24
23 21 21 19 18 16 15 15 15 15 15 14 13 12 12 11 11 9 8 7 6 6 6 6 7 8 8 9 10 12 13 14 15 15 16 17 18 19 20 20 21 22 23 24
22 20 19 18 17 16 16 15 15 15 14 14 13 13 12 11 10 8 7 7 6 6 6 6 7 8 8 9 11 12 12 13 14 15 15 17 18 19 20 21 22 22 23 24
20 19 19 18 17 17 16 15 15 15 14 13 12 12 11 10 9 8 8 7 7 6 6 6 7 7 8 9 10 11 12 13 13 14 15 17 18 19 20 21 22 23 23 24
19 18 18 18 17 17 16 15 15 14 14 12 12 12 12 11 10 9 9 8 8 7 7 6 6 7 8 8 10 11 12 13 13 14 15 17 18 19 20 22 23 23 24 24
19 18 18 18 18 17 16 16 15 14 14 14 13 13 13 12 11 10 9 9 8 8 7 6 6 7 9 9 10 11 12 12 13 14 15 17 18 19 20 22 23 24 25 25
19 18 18 18 18 17 16 16 15 15 15 14 14 14 14 13 12 11 10 9 8 8 7 7 7 8 9 10 10 11 11 12 13 14 15 17 18 19 20 22 23 24 25 25
20 19 20 19 18 17 16 16 16 16 15 15 15 15 15 14 13 12 11 10 9 8 7 7 8 8 9 9 10 10 11 12 12 13 15 16 18 19 20 21 23 24 25 25
21 21 21 20 19 17 16 16 16 16 16 16 16 16 15 15 14 13 12 10 9 8 8 8 8 8 8 8 9 10 11 11 12 13 14 16 17 19 20 21 22 24 25 26
22 22 22 21 20 19 18 18 17 17 17 16 16 17 16 15 14 13 12 11 10 9 8 8 8 8 8 8 8 9 10 11 11 12 14 16 17 18 20 22 22 24 25 27
23 23 22 22 21 20 20 19 18 18 17 17 16 17 17 16 15 14 13 12 11 10 9 9 8 8 7 7 7 8 9 10 11 12 14 15 16 18 20 21 23 24 26 27
Wind_Direction
320 316 314 316 317 320 322 322 322 323 324 324 322 322 322 323 323 322 317 314 312 311 313 314 316 315 312 309 303 305 308 309 311 313 314 316 316 318 318 320 321 323 323 322
316 313 313 317 318 321 326 325 325 325 325 326 326 326 322 323 325 324 321 320 318 314 315 316 319 320 318 313 307 309 312 313 318 320 319 321 322 323 325 326 329 328 326 325
318 315 318 321 322 325 325 323 323 323 324 325 325 325 324 325 326 326 326 323 322 320 321 320 320 320 326 322 316 316 318 324 324 324 324 326 327 326 328 331 331 331 330 329
321 318 320 322 322 322 322 320 320 321 323 325 327 326 324 323 326 329 329 328 327 326 327 329 330 328 327 331 330 330 334 335 333 331 331 331 331 334 335 337 338 337 335 332
322 318 318 320 322 321 318 319 319 321 324 325 329 328 326 324 326 328 328 330 331 331 333 335 336 336 336 334 334 338 338 338 339 339 338 336 338 339 340 340 340 338 336 335
320 317 316 320 318 316 315 318 320 322 322 324 328 327 328 325 327 329 328 331 335 334 335 336 338 339 339 339 342 342 339 341 343 344 346 345 345 345 343 341 340 339 338 337
315 314 313 318 317 316 313 315 315 321 324 325 328 329 331 330 331 333 331 331 335 335 336 338 341 344 344 341 340 339 341 343 344 345 346 346 344 343 341 340 340 340 340 338
313 312 313 315 315 316 314 312 312 316 320 323 324 327 330 332 334 334 334 333 334 335 339 341 343 345 346 342 340 340 342 344 345 346 347 347 345 342 341 340 341 341 340 339
309 310 311 311 312 313 313 312 310 312 313 316 317 320 325 328 330 333 335 333 334 338 340 342 346 344 343 343 343 344 345 346 346 345 345 345 344 343 343 343 342 341 342 341
306 308 308 306 308 311 312 311 308 307 307 310 312 315 319 323 327 330 334 333 335 339 341 342 341 339 339 342 345 348 348 347 346 345 344 343 343 343 344 344 342 342 343 341
305 306 305 303 304 305 303 303 304 305 305 305 308 309 311 320 328 331 331 331 332 333 336 337 337 335 338 344 347 349 348 345 344 344 343 344 346 346 345 344 344 342 343 343
303 303 302 301 299 302 303 302 301 301 301 302 304 306 308 314 320 324 327 329 328 329 333 336 336 335 339 342 346 346 345 343 343 343 344 346 346 345 345 345 344 343 343 343
300 300 300 300 298 300 300 299 299 298 295 295 296 301 306 310 314 318 323 326 326 326 330 334 337 338 340 343 343 342 341 342 343 343 346 346 345 345 345 344 344 344 345 345
298 299 298 298 298 296 295 295 295 293 291 290 293 295 296 299 304 307 314 318 320 322 327 332 336 338 341 343 342 341 341 342 344 344 346 346 346 346 345 344 344 345 347 348
296 297 296 295 295 293 288 287 287 286 287 286 288 287 288 291 294 299 306 310 312 315 321 328 333 335 337 341 343 343 344 345 345 345 346 347 348 347 346 346 345 345 347 348
292 293 293 291 290 287 284 281 281 281 280 280 281 281 284 287 290 294 298 303 304 309 315 322 329 334 338 342 346 347 347 348 348 348 349 350 350 349 348 348 347 347 347 347
289 289 288 286 284 282 282 278 276 275 272 272 276 278 281 283 284 286 293 298 296 300 307 317 327 333 336 342 347 348 349 351 351 352 352 352 351 351 350 350 349 350 349 349
285 285 285 284 280 278 276 273 269 269 269 269 271 274 274 276 277 278 284 284 283 289 303 317 326 329 332 339 344 347 350 353 354 354 354 354 354 354 353 352 352 352 351 351
280 281 281 280 276 275 275 270 268 268 268 267 267 266 266 266 267 269 272 273 273 282 299 314 322 326 332 338 343 345 346 348 351 353 353 354 356 356 355 353 353 353 353 353
276 277 278 276 273 272 270 267 264 260 260 261 260 259 259 257 259 261 263 265 268 276 289 304 316 322 329 336 342 345 345 346 348 351 352 354 356 358 358 357 355 354 354 354
270 271 271 270 269 267 266 264 259 254 253 252 255 255 253 251 253 254 256 260 264 268 279 296 311 318 323 331 339 343 344 344 347 350 351 352 355 357 357 357 356 356 355 355
265 266 266 266 266 264 262 259 256 252 250 250 252 251 250 248 247 248 251 256 259 262 271 287 302 310 318 328 336 338 340 342 345 347 350 352 353 355 356 356 357 357 356 356
261 262 263 263 264 260 257 254 251 249 249 249 248 246 246 244 243 245 247 250 253 258 267 283 296 305 314 323 332 335 337 341 344 347 349 351 352 354 356 356 356 357 356 356
256 257 259 260 260 258 255 251 248 249 250 250 247 245 243 241 241 241 241 245 249 254 266 282 294 302 310 319 328 332 336 339 343 346 348 350 352 353 355 356 357 357 357 357
255 255 257 256 257 257 254 250 249 249 249 249 246 242 240 237 235 236 237 240 243 252 267 281 291 298 306 315 323 329 336 340 344 346 349 351 353 354 357 359 359 358 357 358
256 256 255 253 252 252 250 248 247 246 246 247 243 237 234 233 233 233 237 238 241 251 264 275 284 293 303 311 318 328 337 341 343 347 350 352 354 356 359 0 359 358 358 359
254 253 251 249 249 248 246 244 244 243 242 240 236 233 232 232 232 232 234 237 241 249 259 269 278 288 297 306 315 326 334 340 345 348 349 351 355 357 358 359 358 358 358 359
Height
5829 5826 5824 5822 5820 5817 5815 5811 5808 5806 5802 5798 5795 5792 5788 5784 5780 5776 5773 5770 5767 5764 5760 5757 5755 5752 5749 5748 5746 5744 5742 5740 5738 5736 5734 5731 5728 5725 5722 5718 5715 5712 5708 5705
5826 5824 5821 5819 5817 5814 5811 5808 5805 5802 5799 5795 5792 5788 5784 5780 5776 5772 5768 5765 5762 5759 5756 5753 5751 5748 5746 5744 5743 5741 5739 5737 5735 5733 5730 5728 5725 5722 5718 5715 5712 5708 5705 5701
5823 5820 5818 5816 5813 5810 5807 5804 5802 5798 5796 5792 5788 5784 5780 5775 5772 5768 5764 5761 5758 5755 5752 5750 5747 5745 5743 5742 5740 5738 5736 5734 5732 5730 5728 5725 5722 5718 5715 5712 5709 5705 5701 5697
5819 5817 5815 5814 5809 5806 5803 5800 5797 5794 5791 5787 5784 5780 5776 5772 5768 5765 5761 5758 5755 5752 5749 5747 5745 5743 5741 5740 5737 5735 5734 5732 5730 5727 5725 5722 5719 5715 5713 5710 5706 5702 5699 5695
5814 5812 5810 5808 5805 5802 5799 5796 5793 5790 5787 5784 5780 5777 5773 5769 5766 5762 5759 5755 5752 5750 5748 5745 5743 5741 5740 5738 5736 5734 5732 5730 5728 5725 5722 5720 5716 5713 5711 5707 5704 5700 5696 5692
5810 5807 5805 5804 5801 5797 5795 5792 5789 5786 5783 5780 5777 5774 5771 5767 5763 5760 5757 5753 5750 5748 5747 5744 5742 5740 5738 5736 5734 5733 5731 5729 5726 5724 5721 5718 5715 5712 5709 5705 5702 5698 5694 5689
5806 5803 5800 5798 5795 5793 5791 5789 5785 5782 5779 5776 5773 5771 5768 5764 5761 5758 5754 5752 5749 5747 5745 5743 5741 5739 5737 5736 5734 5732 5729 5727 5725 5722 5720 5717 5714 5710 5707 5703 5699 5695 5691 5687
5800 5798 5797 5793 5790 5788 5786 5783 5780 5778 5776 5773 5771 5768 5765 5762 5759 5756 5753 5751 5748 5746 5744 5742 5740 5738 5736 5735 5733 5731 5728 5726 5724 5721 5719 5715 5712 5709 5705 5701 5697 5693 5688 5684
5796 5794 5791 5787 5785 5783 5780 5778 5776 5774 5772 5770 5768 5765 5763 5760 5757 5755 5752 5750 5748 5745 5743 5741 5739 5738 5736 5734 5732 5729 5727 5725 5722 5720 5717 5714 5710 5707 5703 5699 5695 5691 5686 5681
5790 5788 5785 5782 5780 5778 5775 5773 5772 5770 5768 5766 5764 5762 5760 5758 5756 5753 5751 5748 5746 5745 5743 5741 5739 5737 5735 5733 5730 5728 5726 5724 5721 5718 5715 5712 5709 5705 5701 5697 5693 5689 5684 5679
5785 5783 5780 5778 5775 5773 5771 5769 5767 5766 5764 5762 5761 5759 5757 5755 5754 5751 5749 5747 5745 5743 5741 5740 5738 5736 5734 5731 5729 5727 5725 5722 5720 5717 5714 5710 5707 5703 5699 5695 5690 5686 5682 5676
5780 5778 5775 5773 5770 5768 5766 5764 5763 5761 5760 5758 5757 5755 5754 5753 5751 5749 5748 5746 5744 5742 5740 5739 5737 5735 5732 5730 5728 5726 5723 5721 5718 5715 5712 5708 5704 5701 5697 5693 5688 5683 5679 5673
5774 5772 5769 5767 5765 5763 5761 5760 5758 5757 5756 5754 5753 5752 5751 5750 5749 5747 5746 5744 5742 5741 5739 5737 5735 5733 5731 5729 5727 5724 5722 5719 5716 5713 5710 5706 5702 5699 5695 5690 5686 5681 5676 5670
5767 5765 5763 5762 5760 5758 5756 5755 5754 5753 5752 5751 5750 5749 5748 5747 5746 5745 5743 5742 5740 5739 5737 5735 5733 5732 5730 5727 5725 5722 5720 5717 5714 5711 5708 5704 5700 5696 5692 5688 5683 5678 5673 5668
5761 5759 5757 5755 5754 5753 5751 5750 5749 5749 5748 5747 5746 5745 5744 5743 5743 5742 5741 5740 5738 5737 5735 5734 5732 5730 5728 5726 5723 5721 5718 5715 5712 5709 5706 5702 5698 5694 5690 5685 5681 5676 5671 5666
5754 5752 5751 5749 5748 5747 5746 5745 5744 5744 5743 5742 5742 5741 5740 5740 5739 5739 5738 5737 5736 5735 5733 5732 5730 5729 5726 5724 5722 5719 5716 5713 5710 5707 5704 5700 5696 5692 5688 5683 5679 5674 5669 5664
5747 5746 5744 5743 5743 5742 5741 5740 5739 5739 5739 5738 5738 5737 5737 5736 5736 5735 5735 5734 5733 5733 5731 5730 5729 5727 5725 5722 5720 5718 5715 5712 5709 5705 5702 5698 5694 5690 5686 5681 5677 5672 5667 5661
5740 5739 5738 5737 5736 5736 5735 5735 5734 5734 5734 5734 5734 5733 5733 5733 5732 5732 5732 5732 5731 5730 5730 5728 5727 5725 5723 5721 5718 5716 5713 5710 5707 5704 5700 5697 5693 5688 5684 5679 5675 5670 5665 5659
5733 5732 5731 5731 5730 5730 5730 5729 5729 5729 5729 5729 5729 5729 5729 5729 5729 5729 5729 5729 5729 5728 5728 5726 5725 5723 5721 5719 5717 5714 5711 5709 5706 5702 5699 5695 5691 5687 5683 5678 5673 5668 5663 5658
5726 5725 5725 5725 5725 5724 5724 5724 5724 5724 5724 5725 5725 5725 5725 5726 5726 5726 5726 5726 5726 5726 5725 5724 5723 5721 5719 5717 5715 5712 5710 5707 5704 5701 5698 5694 5690 5686 5681 5677 5672 5667 5661 5656
5719 5719 5719 5719 5719 5719 5719 5719 5719 5719 5720 5720 5721 5721 5722 5722 5722 5723 5723 5724 5724 5723 5723 5722 5721 5719 5718 5716 5713 5711 5708 5705 5702 5699 5696 5693 5689 5685 5680 5675 5670 5665 5660 5655
5712 5713 5713 5713 5713 5714 5714 5714 5714 5715 5716 5716 5717 5717 5718 5719 5719 5720 5720 5720 5721 5720 5720 5719 5718 5717 5715 5713 5711 5709 5706 5703 5701 5698 5695 5691 5687 5683 5679 5674 5669 5664 5659 5653
5705 5706 5706 5707 5707 5708 5708 5709 5709 5710 5711 5712 5713 5713 5714 5715 5716 5716 5717 5717 5717 5717 5717 5717 5716 5714 5713 5711 5708 5706 5704 5702 5699 5696 5693 5689 5685 5681 5677 5673 5668 5663 5657 5652
5698 5699 5700 5700 5701 5702 5703 5704 5704 5705 5706 5707 5708 5709 5710 5711 5712 5713 5713 5714 5714 5714 5714 5714 5713 5711 5710 5708 5706 5704 5702 5700 5697 5694 5691 5688 5684 5680 5675 5671 5666 5661 5656 5651
5691 5692 5693 5693 5694 5695 5696 5698 5699 5700 5701 5702 5703 5704 5705 5707 5708 5709 5710 5711 5711 5711 5711 5710 5710 5709 5707 5706 5704 5702 5700 5698 5695 5692 5689 5686 5682 5678 5674 5670 5665 5660 5655 5650
5683 5684 5685 5686 5687 5689 5690 5691 5692 5694 5695 5696 5698 5699 5701 5702 5703 5705 5706 5707 5707 5708 5708 5707 5707 5706 5705 5703 5702 5700 5698 5696 5693 5691 5688 5684 5681 5677 5673 5668 5664 5659 5654 5649
5675 5676 5677 5679 5680 5682 5683 5684 5686 5688 5689 5691 5692 5694 5696 5698 5699 5700 5702 5703 5704 5704 5704 5704 5704 5703 5702 5701 5700 5698 5696 5694 5692 5689 5686 5683 5680 5676 5672 5668 5663 5659 5653 5648